EW4431 Weather Reports


Display with metric or nautical units.
time (UTC)temp
F
wind
direction
speed
MPH
gust
MPH
rain 1hr
in
rain 24hr
in
rain mn
in
humidity
%
barometer
mb
20260502220025 93 303 2.0 9.0 0.00 0.00 0.00 14 1007.5
20260502214522 93 226 1.0 7.0 0.00 0.00 0.00 16 1007.8
20260502213025 93 116 2.0 8.0 0.00 0.00 0.00 14 1008.1
20260502211554 91 262 3.0 8.0 0.00 0.00 0.00 16 1008.1
20260502210045 92 286 4.0 11.0 0.00 0.00 0.00 16 1008.4
20260502204541 92 327 1.0 5.0 0.00 0.00 0.00 16 1008.6
20260502203037 92 129 1.0 6.0 0.00 0.00 0.00 19 1008.8
20260502201534 92 45 2.0 6.0 0.00 0.00 0.00 17 1009.1
20260502200039 92 266 0.0 7.0 0.00 0.00 0.00 17 1009.3
20260502194532 91 143 4.0 9.0 0.00 0.00 0.00 17 1009.6
20260502193025 90 20 2.0 10.0 0.00 0.00 0.00 21 1009.7
20260502191522 90 46 2.0 11.0 0.00 0.00 0.00 18 1010.0
20260502190020 90 107 2.0 7.0 0.00 0.00 0.00 19 1010.2
20260502184550 89 56 3.0 10.0 0.00 0.00 0.00 19 1010.4
20260502183047 90 96 3.0 10.0 0.00 0.00 0.00 19 1010.7
20260502181513 89 248 2.0 7.0 0.00 0.00 0.00 20 1011.0
20260502163036 84 78 2.0 5.0 0.00 0.00 0.00 26 1011.4
20260502161536 83 43 2.0 5.0 0.00 0.00 0.00 27 1011.4
20260502151536 81 110 1.0 7.0 0.00 0.00 0.00 30 1011.2
20260502130111 0 0.0 0.0 0.00 0.00 0.00 1009.6
20260502123100 0 0.0 0.0 0.00 0.00 0.00 1009.3
20260502121550 0 0.0 0.0 0.00 0.00 0.00 1009.1
20260502114511 0 0.0 0.0 0.00 0.00 0.00 1008.9
20260502113005 74 92 2.0 6.0 0.00 0.00 0.00 23 1008.8
20260502111504 74 114 3.0 6.0 0.00 0.00 0.00 23 1008.7
20260502110034 72 97 2.0 7.0 0.00 0.00 0.00 24 1008.7
20260502104509 71 113 2.0 4.0 0.00 0.00 0.00 26 1008.7
20260502103059 72 119 0.0 3.0 0.00 0.00 0.00 25 1008.6
20260502101602 72 49 0.0 3.0 0.00 0.00 0.00 25 1008.5
20260502071517 73 134 1.0 10.0 0.00 0.00 0.00 27 1008.2
20260502070016 71 23 2.0 6.0 0.00 0.00 0.00 31 1008.1
20260502064518 71 193 0.0 0.0 0.00 0.00 0.00 33 1007.9
20260502063009 72 136 0.0 2.0 0.00 0.00 0.00 30 1007.7
20260502061507 73 93 0.0 2.0 0.00 0.00 0.00 31 1007.5
20260502060004 73 134 0.0 2.0 0.00 0.00 0.00 31 1007.4
20260502054503 72 134 0.0 0.0 0.00 0.00 0.00 32 1007.3
20260502053003 73 129 0.0 1.0 0.00 0.00 0.00 31 1007.2
20260502051502 72 273 0.0 0.0 0.00 0.00 0.00 32 1007.1
20260502050100 72 273 0.0 0.0 0.00 0.00 0.00 32 1007.1
20260502050001 72 273 0.0 0.0 0.00 0.00 0.00 32 1007.2
20260502044558 73 273 0.0 0.0 0.00 0.00 0.00 32 1007.1
20260502043059 73 273 0.0 0.0 0.00 0.00 0.00 32 1007.0
20260502041558 73 273 0.0 0.0 0.00 0.00 0.00 32 1006.7
20260502040024 74 273 0.0 0.0 0.00 0.00 0.00 29 1006.6
20260502034522 74 273 0.0 0.0 0.00 0.00 0.00 30 1006.4
20260502033018 76 273 0.0 0.0 0.00 0.00 0.00 28 1006.3
20260502031511 78 273 0.0 0.0 0.00 0.00 0.00 25 1006.1
20260502030019 79 273 0.0 0.0 0.00 0.00 0.00 24 1005.8
20260502024503 80 273 0.0 1.0 0.00 0.00 0.00 22 1005.7
20260502023002 81 273 0.0 0.0 0.00 0.00 0.00 22 1005.5
20260502021557 83 274 0.0 1.0 0.00 0.00 0.00 19 1005.4
20260502020057 84 276 1.0 4.0 0.00 0.00 0.00 19 1005.3
20260502014555 85 278 0.0 4.0 0.00 0.00 0.00 19 1005.2
20260502013056 87 279 0.0 4.0 0.00 0.00 0.00 18 1005.2
20260502011552 87 278 2.0 6.0 0.00 0.00 0.00 17 1005.2
20260502010052 88 261 1.0 6.0 0.00 0.00 0.00 19 1005.2
20260502004550 88 234 2.0 5.0 0.00 0.00 0.00 17 1005.1
20260502003048 88 278 2.0 6.0 0.00 0.00 0.00 18 1005.1
20260502001547 89 209 0.0 5.0 0.00 0.00 0.00 20 1005.1
20260502000052 88 271 2.0 5.0 0.00 0.00 0.00 19 1005.2
20260501234542 88 281 3.0 9.0 0.00 0.00 0.00 21 1005.2
20260501233040 88 264 2.0 9.0 0.00 0.00 0.00 18 1005.4
20260501231549 88 256 1.0 5.0 0.00 0.00 0.00 19 1005.5
20260501230039 88 274 1.0 6.0 0.00 0.00 0.00 19 1005.5
20260501224544 88 269 3.0 7.0 0.00 0.00 0.00 20 1005.5
20260501223030 88 281 1.0 4.0 0.00 0.00 0.00 22 1005.8
20260501221527 88 308 1.0 7.0 0.00 0.00 0.00 21 1006.0